Meteo Giornale » Osservazioni meteo Italia » Ronchi Dei Legionari

ore: 16:20 - Osservazioni Meteo Ronchi Dei Legionari
Lat. 45° 49' N Lon. 13° 29' E Alt. 12 metri s.l.m.

nuvoloso Europe/Rome

27 °C

Nuvoloso

Temp. 24 Ore

20 °C

27 °C

Est/Sud-Est

7.4 Km/h

Dew point 10 °C

Umidità 34 %

Visibilità  10 Km

Il sole sorge alle ore 05:25

Il sole tramonta alle ore 20:39

Data e Ora Cielo e Fenomeni T °C DP °C Um. % Pres. hPa Vis. km Vento km/h
Oggi h: 16:20 nuvoloso Nuvoloso 27 10 34 1012 10 E/SE 7.4
Oggi h: 15:50 nuvoloso Nuvoloso 26 11 39 1012 10 E/SE 9.3
Oggi h: 15:20 nuvoloso Nuvoloso 26 11 39 1013 10 E 16.7
Oggi h: 14:50 nuvoloso Nuvoloso 27 12 39 1013 10 E/NE 13
Oggi h: 14:20 nuvoloso Nuvoloso 26 12 41 1013 10 E 14.8
Oggi h: 13:50 nuvoloso Nuvoloso 26 11 39 1013 10 E 14.8
Oggi h: 13:20 nuvoloso Nuvoloso 25 11 41 1014 10 E/NE 13
Oggi h: 12:50 poco_nuvoloso Poco Nuvoloso 25 11 41 1014 10 E 14.8
Oggi h: 12:20 poco_nuvoloso Poco Nuvoloso 26 11 39 1014 10 E 20.3
Oggi h: 11:50 sereno Sereno 25 11 41 1014 10 E 24
Oggi h: 11:20 sereno Sereno 25 11 41 1014 10 E 24
Oggi h: 10:50 sereno Sereno 24 11 43 1014 10 E 24
Oggi h: 10:20 sereno Sereno 24 12 47 1015 10 E 24
Oggi h: 09:50 sereno Sereno 23 11 46 1014 10 E 22.2
Oggi h: 09:20 sereno Sereno 23 11 46 1014 10 E 24
Oggi h: 08:50 sereno Sereno 22 11 49 1015 10 E 22.2
Oggi h: 08:20 sereno Sereno 22 11 49 1014 10 E/NE 22.2
Oggi h: 07:50 sereno Sereno 21 11 52 1015 10 E/NE 16.7
Oggi h: 07:20 sereno Sereno 21 10 49 1015 10 E/NE 14.8
Oggi h: 06:50 sereno Sereno 20 10 52 1015 10 E/NE 14.8
Oggi h: 06:20 sereno Sereno 20 10 52 1015 10 E/NE 16.7
Oggi h: 05:50 sereno Sereno 20 10 52 1014 10 E/NE 16.7
Oggi h: 05:20 sereno Sereno 20 10 52 1014 10 E/NE 18.5
Oggi h: 04:50 sereno Sereno 20 10 52 1014 10 E/NE 16.7
Oggi h: 04:20 sereno Sereno 20 10 52 1015 10 E/NE 16.7
Oggi h: 03:50 sereno Sereno 20 10 52 1015 10 E/NE 18.5
Oggi h: 03:20 nuvoloso Nuvoloso 20 11 56 1015 10 E/NE 16.7
Oggi h: 02:50 molto_nuvoloso Molto Nuvoloso 21 11 52 1015 10 E/NE 20.3
Oggi h: 02:20 nuvoloso Nuvoloso 21 11 52 1015 10 E/NE 18.5
Oggi h: 01:50 sereno Sereno 20 11 56 1015 10 E/NE 16.7
Oggi h: 01:20 sereno Sereno 21 11 52 1016 10 E/NE 18.5
Oggi h: 00:50 sereno Sereno 21 11 52 1016 10 E/NE 16.7
Oggi h: 00:20 sereno Sereno 21 11 52 1016 10 E/NE 18.5
Ieri h: 23:50 sereno Sereno 21 11 52 1016 10 E/NE 16.7
Ieri h: 23:20 sereno Sereno 21 12 56 1016 10 E 16.7
Ieri h: 22:50 sereno Sereno 21 11 52 1016 10 E/NE 13
Ieri h: 22:20 poco_nuvoloso Poco Nuvoloso 21 11 52 1016 10 E/NE 16.7
Ieri h: 21:50 poco_nuvoloso Poco Nuvoloso 22 12 53 1016 10 E 18.5
Ieri h: 21:20 poco_nuvoloso Poco Nuvoloso 22 11 49 1016 10 E 16.7
Ieri h: 20:50 poco_nuvoloso Poco Nuvoloso 22 12 53 1015 10 E/NE 16.7
Ieri h: 20:20 poco_nuvoloso Poco Nuvoloso 23 11 46 1015 10 E/NE 16.7
Ieri h: 19:50 poco_nuvoloso Poco Nuvoloso 23 11 46 1015 10 E 18.5
Ieri h: 19:20 sereno Sereno 24 11 43 1015 10 E/NE 20.3
Ieri h: 18:50 sereno Sereno 25 12 44 1014 10 E 20.3
Ieri h: 18:20 sereno Sereno 25 11 41 1014 10 E 22.2
Ieri h: 17:50 sereno Sereno 25 11 41 1014 10 E 22.2
Ieri h: 17:20 sereno Sereno 26 12 41 1014 10 E 22.2
Ieri h: 16:50 sereno Sereno 26 12 41 1015 10 E 22.2